Location: *
(50.8512°N, 5.6907°E)
Time: 18:38:01
(UTC+00:00)

ATLAS 2AS CENTAUR R/B - Pass Details

Date: 09 April 2020
Orbit: 931 x 1280 km, 63.7° (Epoch: 31 May)

Event Time Altitude Azimuth Distance (km) Brightness Sun altitude
Rises 19:55:35 0° 315° (NW) 4,173 7.5 -14.1°
Reaches altitude 10° 19:58:42 10° 307° (NW) 3,161 6.6 -14.5°
Maximum altitude 20:05:18 34° 246° (WSW) 1,792 4.2 -15.4°
Drops below altitude 10° 20:11:27 10° 184° (S) 2,923 4.7 -16.2°
Enters shadow 20:12:56 - 179° (S) 3,393 5.0 -16.4°
